When you browse on this site, cookies collect data to enhance your experience and personalize the content and advertising you see.
Visit our Privacy Policy to learn more. By continuing to use the site, you agree to this use of cookies and data.
  • en Suisse
  • Liste des pays
  • À 7 jours
  • Température de l'eau
  • Carte météo
  • Widgets météo
  • user-avatar
    Se connecter

    Météo par heure à Korosten

    Ce jour, 19 Février, Mercredi

    Heure Température Précipitation Vent Pression Humidité
    00:00 +3°C° 0 mm 4 m/s 747 mmHg 85%
    01:00 +1°C° 0 mm 4 m/s 747 mmHg 87%
    02:00 +1°C° 0 mm 4 m/s 747 mmHg 90%
    03:00 +1°C° 0 mm 4 m/s 747 mmHg 89%
    04:00 0°C° 0 mm 4 m/s 747 mmHg 89%
    05:00 0°C° 0 mm 4 m/s 747 mmHg 89%
    06:00 0°C° 0 mm 4 m/s 747 mmHg 89%
    07:00 0°C° 0 mm 3 m/s 747 mmHg 90%
    08:00 0°C° 0 mm 3 m/s 747 mmHg 90%
    09:00 0°C° 0 mm 4 m/s 747 mmHg 83%
    10:00 +3°C° 0 mm 4 m/s 748 mmHg 75%
    11:00 +4°C° 0 mm 4 m/s 748 mmHg 68%
    12:00 +5°C° 0 mm 4 m/s 747 mmHg 63%
    13:00 +6°C° 0 mm 4 m/s 747 mmHg 59%
    14:00 +6°C° 0 mm 4 m/s 747 mmHg 54%
    15:00 +7°C° 0 mm 3 m/s 746 mmHg 58%
    16:00 +5°C° 0 mm 3 m/s 746 mmHg 61%
    17:00 +5°C° 0 mm 2 m/s 746 mmHg 65%
    18:00 +5°C° 0 mm 2 m/s 746 mmHg 68%
    19:00 +4°C° 0 mm 2 m/s 746 mmHg 71%
    20:00 +4°C° 0 mm 2 m/s 746 mmHg 73%
    21:00 +3°C° 0 mm 2 m/s 746 mmHg 75%
    22:00 +3°C° 0 mm 2 m/s 746 mmHg 76%
    23:00 +3°C° 0 mm 2 m/s 746 mmHg 77%

    Demain, 20 Février, Jeudi

    Heure Température Précipitation Vent Pression Humidité
    00:00 +3°C° 0 mm 2 m/s 746 mmHg 79%
    01:00 +2°C° 0 mm 2 m/s 746 mmHg 80%
    02:00 +2°C° 0 mm 2 m/s 746 mmHg 82%
    03:00 +2°C° 0 mm 2 m/s 746 mmHg 84%
    04:00 +2°C° 0 mm 2 m/s 746 mmHg 86%
    05:00 +1°C° 0 mm 2 m/s 746 mmHg 88%
    06:00 +1°C° 0 mm 2 m/s 746 mmHg 90%
    07:00 +2°C° 0 mm 2 m/s 746 mmHg 92%
    08:00 +2°C° 0 mm 2 m/s 746 mmHg 94%
    09:00 +2°C° 0 mm 2 m/s 747 mmHg 92%
    10:00 +3°C° 0 mm 2 m/s 747 mmHg 89%
    11:00 +4°C° 0 mm 2 m/s 747 mmHg 86%
    12:00 +5°C° 0 mm 2 m/s 747 mmHg 83%
    13:00 +5°C° 0 mm 2 m/s 747 mmHg 79%
    14:00 +6°C° 0 mm 2 m/s 748 mmHg 75%
    15:00 +6°C° 0 mm 2 m/s 748 mmHg 76%
    16:00 +6°C° 0 mm 1 m/s 748 mmHg 77%
    17:00 +6°C° 0 mm 1 m/s 748 mmHg 77%
    18:00 +6°C° 0 mm 1 m/s 748 mmHg 79%
    19:00 +5°C° 0 mm 1 m/s 749 mmHg 81%
    20:00 +5°C° 0 mm 1 m/s 749 mmHg 82%
    21:00 +5°C° 0 mm 1 m/s 749 mmHg 82%
    22:00 +5°C° 0 mm 1 m/s 749 mmHg 83%
    23:00 +5°C° 0 mm 1 m/s 749 mmHg 83%

    Après-demain, 21 Février, Vendredi

    Heure Température Précipitation Vent Pression Humidité
    00:00 +4°C° 0 mm 1 m/s 750 mmHg 83%
    01:00 +4°C° 0 mm 1 m/s 750 mmHg 83%
    02:00 +4°C° 0 mm 1 m/s 750 mmHg 83%
    03:00 +4°C° 0 mm 1 m/s 750 mmHg 85%
    04:00 +2°C° 0 mm 2 m/s 749 mmHg 87%
    05:00 +2°C° 0 mm 2 m/s 749 mmHg 88%
    06:00 +2°C° 0 mm 2 m/s 749 mmHg 89%
    07:00 +1°C° 0 mm 2 m/s 749 mmHg 90%
    08:00 +1°C° 0 mm 2 m/s 749 mmHg 91%
    15:00 +5°C° 0 mm 4 m/s 747 mmHg 63%
    16:00 +5°C° 0 mm 3 m/s 747 mmHg 66%
    17:00 +4°C° 0 mm 3 m/s 747 mmHg 68%
    18:00 +4°C° 0 mm 3 m/s 747 mmHg 71%
    19:00 +3°C° 0 mm 3 m/s 748 mmHg 74%
    20:00 +2°C° 0 mm 3 m/s 748 mmHg 77%
    21:00 +1°C° 0 mm 3 m/s 748 mmHg 83%
    22:00 +1°C° 0 mm 3 m/s 748 mmHg 89%
    23:00 +1°C° 0 mm 3 m/s 748 mmHg 95%

    22 Février, Samedi

    Heure Température Précipitation Vent Pression Humidité
    00:00 +1°C° 0 mm 3 m/s 749 mmHg 94%
    01:00 +1°C° 0 mm 3 m/s 749 mmHg 93%
    02:00 0°C° 0 mm 4 m/s 750 mmHg 92%
    03:00 0°C° 0 mm 4 m/s 750 mmHg 92%
    04:00 0°C° 0 mm 4 m/s 750 mmHg 91%
    05:00 0°C° 0 mm 4 m/s 750 mmHg 91%
    06:00 -1°C° 0 mm 4 m/s 751 mmHg 90%
    07:00 -1°C° 0 mm 4 m/s 751 mmHg 90%
    08:00 -1°C° 0 mm 3 m/s 752 mmHg 90%
    09:00 0°C° 0 mm 3 m/s 752 mmHg 86%
    10:00 +1°C° 0 mm 3 m/s 752 mmHg 81%
    11:00 +3°C° 0 mm 3 m/s 752 mmHg 77%
    12:00 +3°C° 0 mm 4 m/s 752 mmHg 72%
    13:00 +4°C° 0 mm 4 m/s 752 mmHg 67%
    14:00 +5°C° 0 mm 4 m/s 751 mmHg 62%
    15:00 +4°C° 0 mm 4 m/s 751 mmHg 63%
    16:00 +4°C° 0 mm 4 m/s 750 mmHg 64%
    17:00 +4°C° 0 mm 4 m/s 750 mmHg 65%
    18:00 +3°C° 0 mm 4 m/s 750 mmHg 68%
    19:00 +2°C° 0 mm 5 m/s 749 mmHg 71%
    20:00 +1°C° 0 mm 6 m/s 749 mmHg 75%
    21:00 +1°C° 0 mm 6 m/s 748 mmHg 73%
    22:00 0°C° 0 mm 7 m/s 747 mmHg 72%
    23:00 0°C° 0 mm 8 m/s 747 mmHg 70%

    23 Février, Dimanche

    Heure Température Précipitation Vent Pression Humidité
    00:00 0°C° 0.1 mm 8 m/s 746 mmHg 75%
    01:00 0°C° 0.1 mm 8 m/s 745 mmHg 80%
    02:00 -1°C° 0.1 mm 9 m/s 744 mmHg 85%
    03:00 0°C° 0.3 mm 8 m/s 744 mmHg 85%
    04:00 0°C° 0.3 mm 8 m/s 743 mmHg 85%
    05:00 0°C° 0.3 mm 8 m/s 742 mmHg 84%
    06:00 +1°C° 0 mm 8 m/s 742 mmHg 84%
    07:00 +1°C° 0 mm 8 m/s 742 mmHg 84%
    08:00 +2°C° 0 mm 8 m/s 742 mmHg 83%
    09:00 +2°C° 0.1 mm 8 m/s 742 mmHg 81%
    10:00 +3°C° 0.1 mm 9 m/s 741 mmHg 79%
    11:00 +3°C° 0.1 mm 9 m/s 741 mmHg 77%
    12:00 +3°C° 0.7 mm 9 m/s 741 mmHg 78%
    13:00 +2°C° 0.7 mm 8 m/s 741 mmHg 80%
    14:00 +2°C° 0.7 mm 8 m/s 740 mmHg 81%
    15:00 +2°C° 0.3 mm 8 m/s 740 mmHg 78%
    16:00 +3°C° 0.3 mm 7 m/s 740 mmHg 75%
    17:00 +3°C° 0.3 mm 7 m/s 740 mmHg 72%
    18:00 +2°C° 0 mm 6 m/s 740 mmHg 73%
    19:00 +2°C° 0 mm 5 m/s 740 mmHg 73%
    20:00 +1°C° 0 mm 4 m/s 740 mmHg 74%
    21:00 +1°C° 0 mm 4 m/s 740 mmHg 77%
    22:00 +1°C° 0 mm 4 m/s 739 mmHg 80%
    23:00 +1°C° 0 mm 4 m/s 739 mmHg 83%

    24 Février, Lundi

    Heure Température Précipitation Vent Pression Humidité
    00:00 +1°C° 0.2 mm 4 m/s 737 mmHg 87%
    01:00 +1°C° 0.2 mm 4 m/s 736 mmHg 92%
    02:00 +1°C° 0.2 mm 4 m/s 734 mmHg 96%
    03:00 +1°C° 2.4 mm 4 m/s 732 mmHg 96%
    04:00 +2°C° 2.4 mm 5 m/s 730 mmHg 97%
    05:00 +2°C° 2.4 mm 5 m/s 728 mmHg 97%
    06:00 +3°C° 1.1 mm 6 m/s 728 mmHg 94%
    07:00 +3°C° 1.1 mm 7 m/s 727 mmHg 91%
    08:00 +4°C° 1.1 mm 8 m/s 726 mmHg 88%
    09:00 +1°C° 1.1 mm 10 m/s 728 mmHg 87%
    10:00 -1°C° 1.1 mm 11 m/s 729 mmHg 86%
    11:00 -2°C° 1.1 mm 13 m/s 731 mmHg 84%
    12:00 -1°C° 0 mm 12 m/s 732 mmHg 75%
    13:00 +1°C° 0 mm 11 m/s 733 mmHg 66%
    14:00 +1°C° 0 mm 10 m/s 735 mmHg 56%
    15:00 +1°C° 0.1 mm 10 m/s 736 mmHg 60%
    16:00 +1°C° 0.1 mm 9 m/s 737 mmHg 63%
    17:00 0°C° 0.1 mm 8 m/s 737 mmHg 66%
    18:00 0°C° 0.1 mm 9 m/s 738 mmHg 72%
    19:00 -1°C° 0.1 mm 9 m/s 739 mmHg 79%
    20:00 -3°C° 0.1 mm 9 m/s 740 mmHg 85%
    21:00 -2°C° 0 mm 8 m/s 741 mmHg 79%
    22:00 -2°C° 0 mm 8 m/s 742 mmHg 73%
    23:00 -2°C° 0 mm 8 m/s 742 mmHg 68%
    Voir plus